Theta_e
354 356 358 356 359 360 358 357 358 356 360 358 357 357 359 358 364 359 360 361 357 355 357 354 355 352 346 348 350 351 353 354 354 354 353 354 357 360 362 362 361 361 360 360 360 360 359 358 359 358 357 357 356 356 356 356 356 356 356 355 355 354 354 354 354 353 353 354 354 354 353 353 353 352 352 352 352 351 352 352 351 352 352 352 353
354 356 356 355 356 357 357 357 356 357 357 354 356 360 360 362 362 358 359 359 355 356 359 356 353 352 350 343 348 351 353 353 354 354 354 354 356 359 362 362 361 360 360 360 360 359 359 360 359 358 358 358 357 357 356 356 356 356 355 355 355 355 354 353 354 353 352 353 355 354 353 353 353 353 352 353 353 353 353 353 352 353 353 353 353
357 356 356 356 357 355 357 357 355 358 355 355 361 359 361 359 360 358 360 359 359 357 358 356 354 354 354 344 343 349 351 353 354 356 355 355 356 358 359 362 362 360 360 360 360 360 360 360 360 359 359 358 357 357 357 356 356 356 356 355 355 355 354 354 354 354 353 353 352 353 354 353 354 353 353 353 353 354 354 353 353 353 354 354 354
359 358 357 358 359 356 356 357 357 363 359 358 362 363 357 357 363 362 363 362 361 358 358 356 353 353 347 345 343 347 349 351 352 355 356 357 357 358 358 360 362 361 360 361 360 359 360 360 359 360 358 358 358 358 357 357 356 356 356 356 355 355 356 355 355 354 353 353 354 354 354 353 353 354 354 353 354 353 354 353 354 354 354 354 354
360 360 365 360 360 356 358 361 364 361 364 365 365 365 361 360 361 362 360 356 355 353 357 354 350 348 348 342 344 340 344 347 350 353 356 357 358 359 359 360 359 360 360 360 360 359 358 359 359 359 359 358 358 358 357 358 357 357 357 357 356 356 357 355 356 355 355 355 355 354 354 353 353 354 353 353 354 354 354 353 354 354 353 354 354
365 361 360 359 361 359 357 360 362 364 366 367 360 360 360 358 358 358 364 354 350 352 352 351 348 347 345 348 346 345 340 346 348 352 355 357 358 358 359 360 359 358 358 360 360 360 359 359 359 359 359 358 358 358 358 358 357 357 357 357 357 356 357 355 356 355 355 355 355 355 354 354 353 354 354 354 353 354 354 353 354 353 353 353 354
365 361 360 359 359 360 359 360 363 366 366 362 361 358 360 356 357 356 357 352 350 354 355 352 347 343 343 350 348 349 342 343 347 351 355 356 356 357 358 358 357 358 359 357 359 360 360 359 359 359 359 358 359 358 359 359 357 357 358 357 356 356 356 356 355 355 355 355 355 355 354 354 354 353 353 353 353 353 353 353 353 353 353 353 353
365 363 358 359 359 362 361 364 365 365 364 364 362 358 357 357 358 360 353 351 355 352 353 351 349 345 344 347 344 352 340 343 349 352 354 354 354 355 355 356 357 357 362 356 356 358 359 359 359 359 359 359 359 359 358 359 357 357 357 357 356 356 356 355 355 355 355 354 354 354 354 353 354 353 353 353 352 352 353 353 353 353 353 353 353
365 363 360 357 359 361 361 363 364 365 362 363 361 361 357 357 361 362 359 357 350 353 350 350 347 346 344 342 343 352 339 345 348 351 354 352 353 354 354 355 358 363 357 356 356 357 359 359 359 358 359 358 358 358 358 357 358 358 357 357 356 356 355 355 355 355 354 354 354 353 353 353 352 353 353 353 352 352 352 353 353 352 352 352 352
364 362 361 360 360 359 359 363 364 364 359 360 360 362 356 354 359 360 363 358 353 349 348 348 348 347 344 342 343 342 344 343 348 356 350 350 351 352 353 355 357 355 356 356 356 355 356 358 360 359 359 359 358 358 358 357 358 357 357 357 356 356 356 355 355 355 355 354 354 353 353 353 353 353 353 352 352 352 352 352 352 352 352 351 351
363 363 360 362 357 357 359 364 362 364 361 361 360 360 360 360 357 358 363 359 356 354 349 350 345 348 344 342 348 344 341 346 348 346 348 349 351 355 354 353 354 354 353 355 356 355 355 355 355 356 357 359 359 359 358 358 357 357 357 357 356 356 356 355 355 355 354 354 354 354 353 353 353 353 352 352 352 352 352 351 351 351 351 351 351
362 363 359 360 357 355 359 364 362 362 362 359 358 356 357 356 357 357 355 359 359 358 351 347 342 340 348 341 345 346 340 344 343 343 347 348 351 352 351 351 351 352 353 355 356 356 355 354 357 356 355 357 358 359 358 357 357 357 357 356 356 356 356 355 356 355 354 354 353 353 353 352 352 351 352 352 352 352 351 351 351 350 349 349 350
363 362 360 363 360 358 358 361 363 362 359 357 361 359 360 361 362 361 355 353 353 353 353 345 339 335 342 343 342 346 349 343 339 341 343 346 348 348 350 350 349 350 351 353 354 355 354 353 353 354 354 353 356 358 358 357 357 356 356 356 356 355 355 355 355 355 355 354 354 354 353 352 352 353 352 351 351 350 350 349 347 345 344 346 346
363 362 362 360 359 359 359 359 362 361 360 362 361 363 360 359 360 356 357 353 350 353 351 344 337 332 331 335 337 339 345 341 337 339 339 341 345 346 348 349 349 349 350 351 352 354 354 352 351 352 353 353 353 352 354 355 355 356 355 355 356 355 355 355 355 354 354 354 354 353 352 352 352 352 351 351 350 349 347 345 344 344 345 344 345
363 363 361 361 359 357 361 362 363 364 361 360 361 359 358 358 358 352 349 353 352 354 349 344 334 339 340 336 329 327 333 337 337 338 338 339 339 341 345 346 348 348 350 350 351 352 353 353 351 352 353 353 352 352 353 357 354 357 356 356 356 355 355 354 354 354 353 353 354 352 352 351 351 350 348 347 347 346 345 344 344 344 345 344 344
363 363 362 361 359 358 362 363 362 364 362 360 360 360 359 357 357 356 350 346 347 347 350 345 343 338 330 330 330 327 322 323 329 334 338 338 337 338 338 341 343 345 348 349 349 349 350 351 352 352 352 353 353 353 353 352 358 357 357 355 355 357 355 353 355 354 353 354 353 352 350 348 347 346 345 344 344 343 343 343 343 344 343 344 343
362 362 362 361 360 360 362 362 362 363 363 361 360 360 360 359 358 356 354 349 345 344 347 345 344 346 341 330 329 325 325 329 330 331 334 334 336 336 344 337 339 343 345 343 345 346 348 349 351 352 352 352 353 353 353 355 352 357 354 356 356 357 355 353 353 353 351 351 349 347 347 346 344 343 344 343 341 342 342 342 342 342 343 342 342
361 361 361 361 360 362 362 363 362 363 364 363 361 361 360 359 358 354 353 353 346 344 340 349 343 351 345 339 334 328 330 328 325 321 337 343 335 337 338 335 336 337 337 338 341 342 347 347 349 349 350 351 352 351 350 349 354 350 349 352 355 354 353 352 348 346 345 344 344 344 343 343 342 342 342 342 342 342 342 341 342 342 342 342 342
361 361 361 361 361 363 362 362 363 363 367 363 361 361 361 359 360 356 354 356 349 344 337 339 340 341 346 345 345 348 344 326 325 328 323 330 332 332 333 334 334 335 337 338 340 341 343 345 346 348 348 347 348 350 349 350 355 353 355 354 354 350 348 348 345 344 343 343 342 343 343 342 342 342 343 344 343 342 343 343 343 343 343 344 343
359 360 360 360 361 364 363 362 363 364 365 363 362 361 360 362 361 358 358 355 350 346 341 335 331 333 339 337 342 349 340 337 336 325 327 324 327 336 333 333 334 334 335 337 339 340 340 342 342 343 345 343 343 346 348 350 350 350 351 354 350 347 346 348 346 345 344 344 344 343 343 343 343 343 343 345 345 344 343 344 344 344 344 344 344
359 360 360 359 362 363 364 363 363 363 365 364 364 362 359 359 358 355 354 353 351 352 342 336 336 332 330 334 336 337 338 339 343 342 332 325 326 328 327 333 334 333 330 333 337 340 341 341 342 342 344 342 340 343 346 347 348 349 354 351 348 347 347 349 349 345 345 345 346 346 345 345 345 345 346 345 345 344 344 344 344 344 344 344 345
358 359 359 359 361 363 365 365 363 363 364 363 362 362 362 360 358 356 355 351 352 348 343 339 340 335 330 333 332 340 333 330 335 333 335 329 323 325 328 327 326 329 332 330 337 340 340 340 343 342 340 338 340 341 342 344 347 349 353 353 352 350 349 350 350 346 346 346 346 346 345 345 345 345 345 346 347 345 346 346 345 345 344 344 344
358 358 359 359 360 363 365 365 365 364 364 361 361 361 361 361 361 358 354 352 350 343 352 347 347 344 337 334 334 335 332 328 330 332 333 330 327 329 327 326 327 328 331 333 338 337 338 338 340 338 338 337 339 338 338 339 348 349 354 354 353 354 354 352 351 349 350 350 346 346 345 344 345 346 346 346 345 346 346 345 346 345 345 344 343
356 356 358 359 359 361 364 364 364 362 362 362 361 361 361 362 359 357 354 354 350 344 346 341 344 343 341 339 337 341 340 336 337 338 334 332 329 328 329 334 330 330 335 336 337 335 336 337 339 338 338 338 340 337 337 338 338 347 352 353 351 352 353 353 352 351 351 349 348 349 347 347 346 346 346 346 346 346 346 346 346 345 345 345 344
355 354 356 358 358 359 361 361 361 362 362 361 361 361 359 360 359 357 355 354 349 344 344 339 341 340 343 340 338 340 339 340 340 338 340 342 333 330 337 334 330 329 332 334 332 336 336 337 337 338 338 339 341 339 337 335 334 345 349 352 348 349 349 350 349 348 347 346 346 346 346 347 349 350 350 350 349 350 349 349 348 347 347 347 347
355 354 356 358 358 360 361 361 361 362 362 360 360 360 358 358 359 357 356 355 352 348 345 344 339 344 344 338 336 337 337 341 339 339 340 336 333 331 330 335 331 328 333 330 333 332 333 336 336 337 338 339 340 340 339 334 335 347 346 337 343 344 345 345 345 345 344 344 344 345 346 347 349 348 349 348 348 347 348 346 346 348 349 349 348
356 357 358 357 358 359 361 361 362 362 362 361 361 360 360 359 359 357 357 355 355 349 346 346 342 341 343 341 337 336 336 339 337 336 338 335 334 334 335 329 330 331 329 332 334 330 330 333 336 335 337 339 339 341 340 337 341 350 346 332 332 342 341 342 343 342 342 343 343 344 346 347 349 349 349 349 349 348 348 348 349 350 350 349 349
358 359 359 358 358 360 361 361 362 363 361 361 360 359 360 359 357 356 356 358 356 349 348 346 345 340 340 342 342 340 339 339 337 335 335 336 337 337 334 330 326 323 327 327 329 329 334 330 334 334 338 339 340 341 345 345 341 350 351 332 329 334 340 340 340 340 340 340 341 343 345 348 348 350 350 349 349 349 349 350 349 349 348 348 346
358 361 360 358 358 360 361 361 361 362 362 361 361 359 360 359 359 356 355 357 356 349 349 345 346 343 339 341 340 340 342 347 343 338 337 338 337 336 334 331 331 325 322 323 325 327 331 333 328 332 338 339 340 342 342 340 344 347 343 335 332 331 336 337 337 337 338 339 340 342 344 346 347 348 349 348 348 348 349 348 348 347 346 346 346
359 360 360 358 357 362 360 360 361 361 362 361 360 360 360 358 359 358 357 356 355 351 350 347 347 344 341 340 341 342 345 344 344 346 339 336 348 337 338 334 335 331 328 323 324 329 329 332 329 332 334 339 341 341 341 341 345 348 342 338 338 336 335 336 337 338 338 339 339 340 342 344 345 346 345 345 346 347 348 347 347 347 346 345 344
360 358 358 358 358 358 359 359 360 360 361 361 360 360 361 358 358 359 357 355 353 351 350 348 348 347 342 339 340 340 342 344 344 344 346 338 341 343 343 339 339 333 333 330 325 330 335 331 331 334 335 338 341 341 341 342 345 349 342 340 339 342 342 338 337 337 337 337 337 338 339 340 341 342 341 340 341 342 344 345 346 345 345 344 343
360 360 358 358 358 359 358 359 359 360 360 361 361 360 362 359 359 358 358 356 354 350 349 350 349 348 344 340 339 340 341 343 343 343 345 344 341 341 342 341 339 339 336 334 329 329 337 335 334 340 336 337 341 339 339 342 348 352 343 341 340 344 344 343 341 337 336 336 336 337 336 336 337 338 339 340 340 341 344 343 342 343 342 342 342
359 359 358 358 357 358 359 359 359 360 360 360 362 361 361 360 359 359 358 356 355 351 350 348 349 348 346 343 341 341 342 342 341 343 344 345 343 341 343 340 340 340 338 335 332 332 335 339 338 336 339 339 338 338 337 338 342 346 344 341 341 339 340 342 343 341 338 335 335 335 335 335 335 336 336 338 339 340 342 343 341 340 340 339 340
359 357 358 358 358 356 359 359 359 360 360 360 361 362 361 360 359 360 359 357 355 354 350 348 347 349 347 344 342 344 344 342 342 341 343 344 342 340 340 342 338 340 338 335 333 331 331 334 336 339 337 338 336 339 336 337 337 343 340 341 342 341 342 343 343 342 340 336 333 333 333 333 333 333 334 336 336 337 338 339 340 336 336 336 334
360 358 356 358 358 357 356 358 359 359 360 360 361 362 361 360 359 358 359 358 356 354 352 349 348 348 347 345 343 343 347 344 342 342 342 343 343 340 340 340 340 339 340 337 333 332 332 333 336 336 336 338 334 336 340 340 340 343 340 340 341 346 346 344 343 343 340 337 334 332 332 332 332 332 332 333 334 333 334 333 332 332 331 330 328
359 359 356 355 358 358 356 356 357 358 360 360 360 361 361 361 359 357 357 357 357 355 354 351 349 348 347 346 345 343 345 344 343 342 341 341 341 340 339 340 339 339 340 340 337 333 333 332 334 338 337 336 337 339 341 343 342 344 340 340 341 341 344 345 342 341 340 336 335 333 332 331 330 330 329 330 330 329 328 328 327 328 327 326 326
358 359 358 356 355 358 358 356 356 356 358 360 359 359 360 361 360 359 357 356 357 356 355 353 354 349 348 347 346 344 342 344 343 342 342 340 341 340 339 340 339 340 340 341 340 337 335 333 333 337 339 337 338 340 339 339 339 341 342 340 340 338 338 341 344 344 340 335 335 334 332 331 330 330 329 329 328 327 327 326 325 326 325 324 324
357 358 358 357 354 355 358 358 358 357 358 359 359 359 359 360 360 359 358 356 356 357 356 354 353 351 349 348 348 345 342 342 343 344 343 342 341 341 340 340 340 340 339 339 340 339 337 336 335 334 336 339 338 337 339 338 338 336 336 340 340 339 337 336 339 343 344 342 338 336 333 331 330 329 329 329 328 327 326 325 325 324 323 322 319
356 357 358 358 357 354 356 359 359 359 358 359 360 359 359 359 359 359 357 356 356 357 357 356 354 353 351 350 349 347 344 342 342 344 344 343 343 342 342 341 341 340 339 338 339 339 338 336 336 336 336 338 339 337 339 340 339 337 334 334 337 339 338 336 336 339 340 341 338 337 335 333 332 330 325 324 326 326 326 325 324 323 322 320 318
355 356 357 358 358 357 355 356 359 360 360 359 359 359 358 358 359 358 357 356 355 355 356 357 356 354 353 352 351 349 347 344 342 343 346 345 344 343 343 342 342 341 339 338 338 339 338 336 335 334 336 336 335 338 341 338 335 335 336 334 332 333 336 338 338 338 339 339 336 335 334 332 330 329 325 325 326 327 326 326 327 327 325 321 319
356 355 357 358 357 357 357 357 357 359 361 360 359 359 358 357 358 358 358 357 356 355 354 356 356 355 354 353 352 352 351 347 341 341 342 343 346 343 343 343 342 341 340 339 338 337 338 337 335 335 334 334 335 335 336 336 334 333 335 336 334 334 335 335 337 340 340 338 336 335 334 333 331 330 330 329 330 330 329 329 330 331 328 321 320
355 355 355 356 357 357 357 358 358 358 359 361 352 339 344 357 357 358 359 358 357 355 354 353 355 356 355 354 354 347 342 339 337 336 336 337 339 344 344 343 342 341 340 339 338 337 336 336 336 336 334 333 334 334 335 337 337 335 334 335 334 334 335 335 336 338 341 339 336 334 334 336 333 331 331 331 332 337 332 330 329 329 329 326 323
356 355 355 354 356 357 357 358 358 358 359 359 340 333 335 340 354 357 357 358 358 357 355 354 353 355 355 355 354 350 343 339 341 334 334 334 335 337 339 340 341 343 340 339 338 338 337 335 336 336 336 335 336 336 334 335 337 336 335 335 334 333 333 332 331 334 342 340 337 335 334 337 335 332 332 332 333 334 335 333 331 329 326 326 325
357 356 355 354 354 357 358 358 359 359 359 344 334 332 333 333 340 358 358 358 358 357 357 355 355 355 355 355 355 355 353 351 349 344 336 332 333 334 335 337 337 337 339 341 340 338 338 336 335 335 336 336 337 337 336 335 335 337 337 336 335 333 332 331 331 331 337 343 337 335 334 339 337 334 333 335 336 336 337 332 329 328 326 324 325
357 356 356 355 353 355 357 357 357 359 359 342 333 330 331 331 332 344 358 358 358 358 357 356 356 355 356 356 355 355 355 343 347 349 346 342 331 330 332 334 335 334 334 335 337 341 341 339 337 336 336 336 336 338 339 336 337 336 336 335 336 335 335 333 333 334 339 344 338 335 334 337 338 336 334 337 339 339 339 332 329 328 326 324 324
354 356 357 356 355 353 355 357 357 359 360 343 331 328 328 328 330 337 357 357 357 357 358 357 357 356 356 356 355 355 355 354 351 350 349 346 343 339 337 338 340 340 333 332 332 334 339 341 339 337 339 339 337 339 341 339 336 335 335 336 336 336 335 335 337 337 339 345 339 336 332 334 338 335 332 334 337 338 337 331 328 327 327 324 323
352 355 356 356 356 355 354 355 358 358 360 339 328 326 325 325 328 331 355 357 356 356 357 358 357 356 356 357 356 356 356 355 354 350 350 348 346 343 340 339 340 342 343 341 340 340 340 342 341 340 340 341 341 341 342 342 339 338 338 338 338 338 338 338 336 338 341 344 341 337 331 333 337 335 334 335 335 334 335 326 324 326 325 322 322
353 354 355 357 357 356 356 354 354 357 360 335 328 325 323 324 326 341 352 355 354 354 354 355 357 357 356 356 356 355 356 355 346 333 340 350 347 344 342 340 340 341 342 339 337 338 342 343 343 342 342 343 340 344 344 343 341 340 342 341 339 338 336 334 333 337 337 341 341 336 331 331 336 335 334 335 334 332 330 326 322 322 321 320 321
352 353 353 355 357 357 357 356 354 353 357 340 325 323 322 322 325 346 351 353 354 354 354 354 355 356 356 356 355 355 355 355 344 331 330 337 349 346 344 342 341 340 341 344 334 330 331 331 332 333 334 333 332 331 331 334 340 340 341 338 335 336 334 332 332 333 334 338 340 338 334 330 332 333 331 330 329 327 324 322 322 320 319 317 317
352 353 353 354 355 357 357 357 356 355 354 342 322 321 319 319 328 348 351 352 353 354 354 354 355 355 355 347 355 354 353 354 338 329 328 334 347 347 346 344 342 340 341 343 344 341 329 328 329 331 332 332 332 332 332 331 332 335 340 336 337 337 333 333 330 332 334 336 339 341 333 330 332 331 329 326 325 325 324 322 321 321 320 315 313
354 354 354 354 354 355 357 357 347 353 356 346 318 318 317 318 329 349 352 352 352 353 354 353 354 355 355 351 344 344 348 346 332 328 325 331 347 349 348 346 343 342 343 343 342 342 341 339 339 338 338 337 340 340 341 333 335 346 342 340 339 337 333 332 332 331 330 332 337 342 333 330 330 330 328 317 315 320 323 324 323 320 319 318 316
Wind_Speed
5 5 5 5 4 4 4 3 2 3 3 3 2 2 2 2 2 2 2 2 1 1 2 3 1 1 2 10 8 7 6 6 6 7 7 6 6 9 13 12 11 11 11 10 11 11 11 11 11 11 11 11 11 11 10 10 10 9 9 8 8 7 7 6 6 6 6 6 4 4 3 2 1 1 1 1 2 2 2 3 3 3 4 4 4
6 5 6 5 5 4 4 4 4 4 4 4 4 4 2 1 1 2 0 1 1 1 1 3 3 2 1 6 9 8 7 7 7 7 6 6 6 7 14 12 11 11 11 11 11 11 11 11 11 11 11 11 11 11 10 9 9 9 9 9 8 7 7 6 5 5 4 4 5 3 3 2 2 2 2 2 2 3 4 5 5 5 5 5 5
7 7 5 6 5 5 5 4 4 4 4 4 3 3 3 3 3 2 2 0 2 1 1 2 3 4 2 4 8 7 7 7 7 7 6 6 5 6 8 14 11 11 11 11 11 11 11 11 11 11 11 11 10 11 10 9 9 8 8 8 7 7 6 6 5 6 5 4 3 4 3 2 2 2 2 2 2 3 3 4 4 5 5 5 5
7 6 6 6 5 6 5 5 5 5 5 4 3 4 4 1 1 2 1 3 2 2 2 3 3 3 3 3 8 9 7 6 6 7 7 6 6 6 6 8 12 12 11 11 11 11 11 11 11 11 11 11 10 10 10 9 9 8 8 7 7 7 6 6 5 4 4 3 3 3 3 3 2 1 0 1 2 3 3 3 3 3 3 4 4
6 6 6 6 6 5 4 3 2 1 1 2 2 2 3 1 2 2 3 3 3 2 3 3 3 5 1 0 6 9 8 8 7 6 7 7 6 5 6 6 6 10 11 10 11 11 11 11 11 11 11 11 11 10 10 10 10 9 8 8 8 8 7 7 6 5 4 4 4 4 4 3 3 2 2 3 3 2 3 3 2 2 3 3 4
5 5 5 5 5 5 5 4 3 3 2 2 3 3 4 1 1 0 3 2 2 4 3 4 5 2 3 2 3 3 8 9 8 7 6 7 6 5 6 5 5 4 5 10 10 11 11 11 11 12 11 12 11 11 10 10 10 9 9 9 8 8 7 6 6 5 5 5 4 4 4 4 3 3 3 3 2 2 3 3 3 4 4 4 5
4 6 5 5 5 5 5 5 4 3 4 3 4 1 2 2 1 1 4 2 4 2 2 3 1 1 2 3 4 3 6 9 8 7 7 6 6 6 6 6 5 5 5 4 8 11 11 11 11 11 12 11 11 11 11 10 10 10 9 8 8 7 7 5 5 5 5 4 4 3 4 3 3 3 4 4 3 3 2 3 4 4 4 4 5
4 5 5 4 5 4 5 4 3 3 4 2 3 4 2 0 1 3 6 4 2 2 2 2 0 1 2 2 3 3 7 9 8 8 7 7 6 6 6 6 5 5 5 4 4 6 10 11 11 10 10 10 10 10 10 11 10 9 9 8 8 7 6 6 5 4 4 4 3 2 3 2 2 1 2 3 3 3 4 4 4 4 5 5 6
4 5 6 5 4 4 4 4 3 3 3 2 2 3 3 2 1 2 3 2 1 0 1 3 0 2 1 1 2 2 8 9 9 8 7 6 6 7 7 6 6 7 5 5 4 4 8 11 11 11 10 10 10 9 10 10 10 10 9 9 9 8 7 6 5 4 4 4 4 3 2 2 1 1 2 2 2 1 2 3 4 5 5 5 6
4 4 5 5 5 5 4 4 4 3 3 2 2 3 3 2 2 1 1 2 2 1 3 3 2 2 0 2 2 3 6 8 7 7 7 7 7 7 7 7 6 6 6 5 5 5 4 9 12 11 11 10 10 10 10 10 10 10 10 9 8 8 8 7 5 5 5 4 4 3 3 3 3 3 3 2 2 1 2 2 3 3 4 4 4
4 4 4 4 5 5 4 4 3 3 3 2 2 2 1 3 3 2 1 0 2 3 5 4 1 1 2 3 1 3 5 7 8 7 7 8 7 8 7 7 7 6 6 6 5 6 5 4 4 4 6 12 11 11 10 10 9 9 9 9 9 7 7 7 6 6 5 5 4 4 3 4 3 4 3 2 0 1 2 3 3 3 3 4 4
4 4 5 4 5 5 4 4 4 3 3 3 2 2 1 3 4 3 2 0 2 2 1 4 3 4 1 2 1 2 1 4 6 7 6 7 6 6 7 6 6 7 7 5 5 5 5 5 5 4 4 8 12 11 10 10 9 9 9 8 8 7 7 7 6 6 5 5 5 4 4 3 3 3 2 2 4 4 3 3 3 3 4 4 4
6 5 5 5 4 5 5 4 4 4 4 4 3 3 3 2 2 3 2 1 1 2 1 4 3 2 3 2 2 1 0 3 7 6 7 6 6 6 6 6 6 6 6 6 6 5 5 6 5 5 5 3 6 10 10 9 8 9 8 8 8 7 7 7 6 6 7 5 4 5 3 3 3 4 4 5 5 4 4 3 2 2 3 3 3
6 6 5 5 4 5 6 6 5 5 5 3 3 3 2 3 3 2 0 2 2 2 1 3 1 3 2 0 3 3 2 0 3 5 6 7 7 7 6 6 7 6 5 6 6 6 5 5 4 5 4 4 3 2 5 5 6 8 7 8 8 6 6 6 6 5 5 5 6 4 4 5 4 5 5 5 5 5 4 4 3 3 4 4 4
7 6 6 5 5 4 5 6 6 5 5 4 4 4 4 3 4 4 2 1 3 2 3 3 2 2 2 3 0 0 2 1 2 4 4 5 6 8 7 7 8 6 6 6 6 6 5 5 5 5 5 4 3 2 3 4 4 7 7 6 6 8 7 7 6 6 6 6 6 6 6 5 5 5 5 5 5 5 5 4 4 4 3 4 3
7 7 6 6 6 5 4 5 6 4 6 5 5 4 4 3 4 3 4 3 3 3 4 4 2 5 2 3 3 4 0 3 2 1 5 5 4 5 8 8 8 7 6 7 7 6 6 6 7 6 6 5 4 4 4 3 7 9 9 7 5 6 8 7 7 7 6 7 7 7 6 6 6 5 5 5 4 4 4 3 3 3 3 2 2
8 8 6 7 6 6 5 6 6 5 4 5 5 5 5 5 5 5 4 3 1 3 2 3 5 4 4 2 2 1 3 3 1 1 3 4 4 7 5 8 9 9 7 6 6 6 6 6 6 7 7 6 5 4 5 5 4 4 6 8 8 5 7 8 8 8 8 8 8 7 7 6 6 6 5 5 4 3 3 2 2 1 1 1 1
8 8 8 6 7 7 6 6 6 5 6 6 5 4 5 6 6 6 6 4 2 2 3 1 4 3 3 4 5 3 3 2 4 3 1 1 4 5 6 6 8 9 7 7 8 6 6 6 5 5 6 7 6 5 5 4 3 3 4 5 10 8 9 10 10 10 9 9 8 8 7 6 6 5 5 4 4 3 2 1 1 1 1 1 1
9 9 8 8 7 7 7 6 6 6 5 6 5 6 6 6 6 5 6 6 4 3 3 5 2 1 3 2 1 1 2 3 2 2 4 2 4 3 5 5 6 8 8 8 7 7 6 6 6 5 4 5 7 6 5 5 5 6 7 9 10 9 10 9 10 10 9 9 8 8 7 7 6 6 5 5 4 4 4 4 3 3 3 4 3
8 8 8 8 7 7 7 6 6 6 6 6 6 5 5 5 6 7 5 4 5 4 4 5 7 3 1 2 0 0 2 3 3 4 5 5 2 2 3 6 6 6 8 8 8 7 7 5 6 6 6 5 6 6 6 6 5 5 5 9 10 11 10 10 11 10 10 10 9 8 8 8 7 6 6 5 5 5 5 5 5 5 5 5 5
8 8 9 8 8 8 8 7 6 6 6 6 6 6 7 6 6 5 5 5 4 4 5 5 5 5 3 1 1 1 1 1 1 2 2 3 3 3 4 1 0 2 5 6 7 6 7 7 6 6 8 8 7 7 7 7 6 6 6 12 12 12 11 10 10 12 10 10 10 9 9 8 8 7 7 7 7 6 6 6 7 6 6 6 6
8 8 9 9 8 8 8 8 7 7 6 6 6 5 5 7 8 7 6 5 3 5 6 5 4 4 5 5 3 0 1 2 0 1 3 3 4 3 4 7 5 3 3 5 7 7 6 7 7 6 7 8 7 7 7 8 7 7 8 14 13 12 12 10 9 12 11 10 10 10 9 9 9 8 8 8 8 8 8 8 7 7 7 7 6
8 7 8 9 8 8 8 8 6 6 7 7 7 7 5 6 6 6 6 5 4 4 4 4 3 4 4 5 6 5 4 3 3 2 2 1 2 0 1 7 8 5 6 6 7 7 7 7 6 6 6 7 7 7 7 7 9 9 13 15 13 12 11 11 10 11 10 9 9 10 10 10 10 9 9 9 9 9 9 8 9 8 8 8 8
8 9 7 9 9 8 8 8 7 6 7 7 7 6 6 6 6 6 6 5 4 4 4 4 4 3 5 5 5 4 3 3 4 3 4 4 5 3 2 1 0 1 3 3 5 7 7 7 6 7 7 7 7 8 7 7 8 14 12 15 15 15 14 13 13 12 11 10 9 9 10 10 10 10 10 10 10 10 10 10 9 9 9 10 9
9 10 9 10 9 8 9 8 8 8 6 7 6 7 6 6 6 7 7 6 6 7 5 5 4 5 5 4 5 4 4 4 4 3 3 4 5 3 2 2 3 2 3 6 3 4 7 7 6 8 7 7 7 7 7 7 7 13 13 12 17 16 16 16 14 14 13 12 12 11 10 9 8 7 6 6 8 9 9 9 9 10 10 10 10
11 11 11 10 9 9 9 9 8 8 7 7 7 6 6 7 7 8 8 7 6 7 6 5 5 4 5 5 5 5 5 3 4 3 3 4 4 5 3 1 1 4 2 5 4 4 4 4 5 7 7 7 7 7 8 8 8 14 15 10 14 16 16 16 16 15 15 14 13 12 12 11 11 11 10 9 10 10 10 10 10 10 10 10 9
11 10 10 10 9 9 9 9 8 8 8 7 8 7 6 6 7 8 7 7 7 7 7 6 6 6 4 6 6 5 6 4 4 5 4 5 6 5 5 2 1 1 2 1 2 8 6 6 7 6 8 8 7 7 9 8 9 14 16 10 9 17 16 16 16 16 15 15 14 14 13 13 12 13 12 11 11 11 10 10 10 10 9 9 8
8 9 10 10 9 10 10 10 8 8 8 8 8 7 6 6 7 8 8 7 7 9 7 7 6 6 5 5 6 6 6 5 5 6 6 6 5 5 6 5 5 2 2 2 2 4 4 5 4 7 8 9 8 8 8 10 8 15 16 8 8 10 16 16 16 16 15 15 15 15 14 14 13 13 13 12 11 10 10 9 8 8 8 8 7
7 9 10 10 10 9 10 10 10 8 8 8 8 8 7 6 7 8 8 8 8 9 8 8 6 7 6 5 6 6 6 3 3 5 5 4 6 6 6 7 7 5 4 4 4 5 4 5 4 6 7 8 9 7 8 8 10 11 8 8 8 7 13 17 17 15 15 15 15 15 14 14 13 13 13 12 11 11 11 9 9 8 8 7 7
9 8 9 10 9 10 10 10 10 10 9 9 9 8 8 7 7 8 8 8 8 7 8 8 8 6 7 6 5 6 5 5 5 4 5 5 6 6 6 6 7 7 5 6 6 5 4 3 5 5 5 8 8 8 7 9 11 13 9 9 8 8 14 17 16 16 16 15 15 15 15 14 13 13 13 12 11 10 10 10 9 8 8 7 7
9 9 9 9 10 10 10 10 10 11 9 9 9 8 8 8 7 7 7 7 8 8 8 8 8 7 7 8 6 6 5 5 5 4 5 5 5 6 5 6 6 7 7 5 3 4 5 6 5 4 8 9 8 8 7 7 9 11 9 8 8 11 14 13 17 16 16 16 16 15 15 14 13 13 12 12 11 11 11 10 9 7 8 7 6
10 11 11 10 10 11 10 11 11 11 10 10 10 9 9 9 8 8 8 7 8 9 8 8 7 7 7 8 8 7 6 5 5 5 4 5 5 6 6 6 5 6 7 6 7 7 4 5 5 5 7 9 7 8 8 6 8 13 8 8 10 12 9 7 14 17 17 17 16 15 14 14 13 13 13 12 12 11 9 11 9 8 7 7 7
10 10 11 12 12 11 12 11 12 11 11 11 10 10 9 9 9 9 8 9 8 7 8 9 8 8 8 7 7 8 6 6 6 6 4 5 6 6 6 7 6 5 7 6 6 7 5 2 2 4 6 6 6 8 8 7 6 7 7 8 8 8 8 7 7 13 16 16 15 15 14 14 13 14 14 14 13 12 11 10 10 9 9 9 8
12 11 11 11 12 12 12 12 12 12 12 11 10 10 10 10 10 8 9 10 10 8 8 9 9 7 8 9 7 7 8 8 7 7 6 5 6 6 7 7 7 7 7 7 7 6 9 4 2 1 4 6 8 6 9 8 7 5 7 6 6 7 7 7 6 7 14 15 15 14 14 14 14 14 15 14 13 12 12 11 10 10 9 8 7
11 12 12 11 11 12 12 12 12 12 12 12 11 11 12 12 12 11 10 11 12 11 10 10 10 9 8 9 10 8 6 8 8 9 7 6 6 7 8 6 7 7 7 7 6 7 8 8 4 3 5 5 7 7 7 7 7 7 8 7 7 6 5 7 6 5 10 14 14 14 15 15 15 15 14 14 13 12 12 11 10 9 9 8 7
12 12 12 12 10 12 13 12 12 12 13 13 13 13 13 13 12 12 11 11 12 12 12 11 11 11 11 10 11 11 8 9 9 9 8 7 7 7 7 7 8 8 7 6 8 7 6 7 5 7 5 6 7 5 6 6 7 7 7 7 5 6 6 6 6 6 7 13 15 16 16 16 15 14 13 13 13 12 12 10 9 9 9 9 8
13 12 11 12 11 11 12 13 13 13 13 13 14 13 13 13 13 13 12 12 12 13 13 13 11 12 12 12 12 11 10 10 9 9 10 11 9 8 8 8 8 8 6 7 7 6 6 8 7 5 5 5 6 6 7 7 5 5 4 6 7 8 7 6 5 6 9 14 16 17 16 16 15 14 14 14 13 12 11 11 9 9 9 9 9
13 13 13 12 12 13 13 13 14 14 13 13 14 15 14 13 13 13 13 13 12 12 12 13 13 12 12 13 12 11 12 12 11 11 10 12 11 10 10 9 9 8 9 8 7 8 8 8 7 7 5 6 5 5 6 8 8 6 4 5 4 6 7 6 6 5 5 5 5 7 10 12 14 15 15 14 13 12 12 11 10 9 10 10 10
14 13 14 14 13 14 14 13 14 14 14 14 14 14 13 13 13 14 13 13 13 11 12 13 13 13 13 13 13 13 13 14 13 12 12 12 11 12 12 11 9 9 9 9 8 9 9 9 7 7 7 6 6 7 5 7 8 8 9 6 6 6 6 8 7 6 4 5 6 9 9 10 12 11 14 15 13 13 12 11 10 11 10 11 11
15 15 14 15 14 13 14 14 14 13 13 14 13 13 13 13 13 14 14 13 13 12 12 12 13 13 14 14 14 14 14 14 14 13 12 12 11 12 11 10 9 10 11 10 9 9 10 9 10 9 7 7 5 4 3 5 6 6 8 9 10 7 7 7 8 8 6 6 6 4 5 6 6 8 9 10 11 11 12 10 11 11 11 11 11
14 15 14 14 14 14 14 14 14 13 13 13 12 13 13 14 13 14 14 14 13 13 12 12 13 14 14 14 14 14 15 17 19 17 16 14 12 12 12 11 11 11 11 10 10 10 9 9 10 8 7 8 8 7 7 8 12 13 7 6 7 7 7 6 7 7 6 7 6 6 6 6 6 7 7 7 8 10 10 11 9 11 12 12 12
15 14 13 13 14 15 14 14 14 13 13 11 14 20 18 14 14 12 12 13 13 13 13 13 13 14 15 14 14 19 19 20 20 21 20 20 20 16 13 12 13 12 12 11 11 11 11 11 11 10 10 11 11 11 11 10 7 4 5 8 8 7 5 7 6 7 7 7 6 7 7 6 7 7 7 7 7 7 6 6 7 9 11 14 14
15 14 13 14 14 14 15 15 15 14 12 12 18 18 20 21 15 13 13 13 13 13 13 13 13 14 14 14 13 15 17 17 18 21 21 22 21 21 19 18 16 15 13 13 12 12 12 12 11 10 12 13 13 11 12 10 6 9 9 8 8 6 8 8 9 3 6 9 7 7 7 6 7 8 7 8 8 7 7 8 12 13 13 13 14
13 12 14 16 15 14 14 15 15 14 13 16 19 19 20 21 19 15 12 12 12 13 13 14 13 13 13 13 12 11 12 15 15 16 20 22 22 21 21 20 20 21 18 16 14 12 12 12 12 13 12 13 12 10 11 9 9 8 9 8 9 10 9 10 8 8 5 9 8 7 8 5 7 8 7 8 8 7 8 11 13 13 14 15 14
12 14 15 15 15 13 14 16 16 15 14 18 19 21 21 21 22 19 12 13 13 13 13 14 14 13 12 12 12 12 11 18 17 15 14 16 20 23 23 23 22 22 21 20 19 17 13 14 14 14 14 12 11 12 12 12 9 11 8 9 10 10 10 11 10 9 5 9 8 7 8 5 6 7 8 7 7 7 8 10 14 15 16 14 13
13 14 14 16 15 14 14 14 15 15 15 17 21 21 21 22 22 20 15 14 13 13 14 15 14 14 14 13 12 12 13 13 13 15 14 15 15 16 16 16 16 19 21 23 24 24 17 14 14 15 14 12 14 13 12 11 12 13 11 12 11 11 11 13 13 10 6 8 11 7 5 6 6 6 8 7 6 6 6 9 15 16 15 13 12
14 14 15 15 15 15 14 13 13 15 14 19 21 22 22 23 23 20 16 14 12 13 13 14 15 14 13 13 13 14 13 14 12 15 16 15 15 15 16 17 18 17 17 18 18 16 15 14 15 16 15 14 15 13 11 13 15 14 14 15 15 15 12 7 4 5 6 8 9 8 9 6 6 7 8 7 6 6 6 8 13 15 15 14 14
12 12 11 12 14 15 15 15 13 14 14 19 21 23 23 23 23 16 15 15 14 13 14 14 13 13 13 13 13 14 15 15 16 19 19 15 14 16 16 17 17 16 16 19 22 21 18 17 17 16 15 14 15 13 12 13 13 12 11 10 9 9 9 9 12 8 9 8 10 10 7 6 7 8 7 6 5 6 5 5 11 16 16 16 15
12 13 13 14 13 14 15 15 16 14 13 16 20 22 23 23 17 13 14 14 14 14 14 13 13 13 13 14 15 14 15 15 17 19 20 19 15 16 16 17 16 15 17 17 18 20 22 23 24 23 20 18 18 19 18 21 16 13 10 10 13 11 12 12 11 9 11 9 9 10 8 6 6 8 7 5 6 6 6 6 6 11 16 16 16
13 14 13 12 12 12 14 15 16 15 14 12 18 20 21 21 19 15 13 13 14 14 14 12 10 11 14 19 17 15 15 15 17 19 20 18 16 17 16 17 16 17 19 14 8 12 21 24 24 23 21 19 19 20 21 21 22 18 14 17 14 11 14 13 12 11 8 9 11 11 7 7 6 6 6 2 3 2 6 5 6 7 11 11 13
12 10 9 10 11 11 12 13 14 15 12 10 15 18 19 21 19 13 13 13 14 14 12 12 12 11 12 14 19 18 16 16 18 18 19 18 16 17 16 15 17 19 20 11 13 14 12 13 15 16 16 17 16 16 17 24 24 22 18 16 10 13 14 12 10 6 6 8 9 13 10 6 8 7 7 4 5 2 4 7 7 7 6 6 7
Wind_Direction
166 162 147 145 150 145 154 155 165 196 156 207 202 249 230 186 160 155 209 235 205 249 313 324 321 158 152 159 168 161 157 152 138 144 151 156 154 160 159 162 165 164 165 166 165 165 168 167 166 168 165 161 159 160 161 161 159 158 157 158 155 153 149 147 154 155 159 155 149 161 167 140 115 174 208 269 288 304 316 313 319 332 338 336 337
153 153 148 154 156 148 156 174 179 197 189 196 211 196 179 136 144 155 307 311 287 239 300 309 320 333 228 172 154 159 160 150 149 150 151 151 154 160 160 163 167 170 170 172 171 169 169 167 168 170 171 168 166 166 166 167 166 165 166 163 162 161 160 161 165 172 173 158 163 174 174 163 200 218 220 251 283 308 317 316 326 331 328 333 330
146 154 155 153 149 170 177 179 194 195 194 215 212 170 177 163 166 194 206 27 311 237 250 293 301 290 270 160 144 154 153 158 155 145 147 148 154 155 162 163 167 173 175 177 178 175 172 169 169 170 174 173 175 171 171 169 170 172 171 174 165 164 166 169 179 182 181 181 185 180 179 180 187 206 223 273 290 308 311 312 321 329 333 330 330
138 151 157 155 159 175 184 168 188 180 189 188 169 147 166 143 159 200 156 62 345 347 308 282 294 289 279 103 146 156 153 155 146 149 147 151 160 157 154 161 169 173 177 181 182 181 173 174 175 175 175 179 178 176 175 171 172 173 178 173 171 172 176 184 187 190 185 178 183 185 183 209 213 156 250 291 289 299 305 311 321 321 324 325 321
146 151 147 144 150 158 156 168 174 157 199 153 129 110 76 45 70 124 81 47 2 313 308 266 294 272 352 316 105 140 156 149 150 148 151 148 151 153 148 153 161 174 176 181 181 185 177 178 179 180 179 182 183 180 179 178 180 180 177 174 176 178 185 187 195 190 189 200 208 216 223 231 221 206 228 237 239 249 263 284 293 293 301 304 309
141 139 140 143 147 151 157 170 176 157 162 103 102 111 125 121 100 246 90 78 298 289 332 310 269 339 6 334 41 91 148 156 150 149 140 146 148 149 145 139 148 156 172 185 183 184 180 179 184 185 183 185 187 183 182 182 180 182 186 179 181 183 189 186 186 194 197 203 208 215 228 231 232 206 226 231 234 263 275 292 299 302 304 305 300
150 139 147 145 147 155 157 171 166 142 126 148 114 105 148 136 93 198 115 144 237 229 248 236 89 70 338 9 24 349 99 139 137 130 139 140 142 144 144 142 144 159 170 170 188 187 186 179 186 188 189 190 190 188 185 185 186 188 193 193 191 188 191 183 191 199 201 210 209 206 220 222 239 249 255 247 257 256 282 297 304 305 308 307 304
164 143 150 150 153 153 163 158 145 128 131 158 139 155 115 114 269 168 132 190 235 282 302 350 333 233 284 16 27 349 81 118 135 139 143 144 147 143 136 144 157 162 165 164 170 187 192 182 185 189 192 195 194 198 191 193 192 191 194 196 196 193 192 195 191 202 204 207 196 194 218 225 235 272 273 268 266 279 291 300 301 313 320 321 320
163 154 146 163 156 145 164 158 144 145 140 147 146 149 155 156 219 136 134 138 157 261 325 287 242 185 200 80 29 39 94 134 140 140 136 138 144 142 139 152 160 171 150 164 168 170 187 182 189 191 190 196 199 203 202 200 194 196 197 197 197 193 191 186 188 196 207 214 207 190 185 216 240 239 267 278 276 289 305 308 311 315 317 326 333
164 158 155 161 157 156 167 159 151 144 163 162 193 152 167 153 144 53 101 113 159 206 257 241 230 230 65 69 212 113 99 128 139 137 139 145 155 147 150 154 158 154 159 163 164 164 171 183 193 190 193 195 196 203 207 205 202 200 200 203 202 200 189 192 191 200 212 212 213 205 214 212 213 217 241 261 268 294 311 314 327 339 5 7 353
165 161 174 145 151 154 163 156 149 156 165 179 200 180 174 156 150 126 78 78 193 192 209 180 151 40 120 138 38 51 93 117 132 139 150 149 155 149 145 155 156 155 161 162 153 159 167 171 185 190 198 198 200 201 204 204 206 207 203 203 208 202 207 206 203 205 205 206 209 211 216 213 208 218 209 226 257 125 70 53 50 39 33 21 20
167 166 177 166 160 165 168 155 151 158 165 162 183 166 156 141 135 136 118 12 338 286 313 82 82 83 94 36 20 87 65 114 143 147 143 152 154 149 155 155 158 163 159 154 151 162 163 165 175 186 200 201 199 200 205 207 205 207 206 208 207 207 212 208 212 209 208 206 209 208 205 199 195 179 173 153 123 116 102 83 64 52 47 47 43
170 166 169 189 175 167 167 164 163 167 178 187 176 139 131 116 110 97 124 121 289 319 330 109 95 22 7 358 336 356 52 105 146 146 151 162 157 158 161 152 157 152 154 150 160 160 163 168 172 176 183 204 205 199 200 205 204 208 211 203 205 211 208 212 209 202 202 194 186 183 184 173 171 162 151 136 135 130 127 120 109 81 76 62 50
171 166 172 182 193 173 168 176 171 175 188 188 158 132 134 142 132 85 84 155 230 248 222 91 44 142 133 331 346 342 337 75 149 156 166 158 162 161 156 159 158 149 153 152 154 159 168 170 172 170 166 185 196 178 175 194 199 204 204 204 195 188 196 204 198 188 185 173 168 153 165 172 158 145 142 142 140 139 134 134 119 101 78 68 53
169 170 173 184 192 186 166 173 175 167 173 178 142 156 171 158 133 139 145 202 220 239 226 137 174 132 116 86 318 121 321 3 22 153 158 171 159 149 158 167 161 154 159 147 155 161 166 170 168 167 168 172 167 152 152 161 178 187 191 199 191 184 187 184 171 172 168 158 150 156 158 151 146 145 142 144 144 138 136 125 111 92 80 66 55
170 173 176 183 189 189 173 170 173 163 168 167 170 176 162 145 139 154 147 180 213 246 179 151 127 125 127 176 200 129 62 290 220 274 177 184 158 133 157 169 152 157 150 159 165 165 174 167 170 167 169 172 165 161 167 159 180 176 179 183 179 181 181 169 165 171 159 147 152 157 156 156 153 153 149 142 134 127 119 113 101 99 83 62 51
173 177 176 184 187 188 180 176 173 179 165 166 175 180 170 167 168 165 181 170 215 220 229 156 163 164 142 97 43 36 215 234 130 345 197 173 168 150 138 136 151 163 161 168 161 174 174 168 163 162 165 165 163 167 166 172 161 163 167 170 175 191 161 160 164 160 154 155 159 160 160 158 156 154 148 143 133 130 123 120 112 105 106 40 30
174 178 183 182 189 186 181 172 176 180 177 175 180 161 166 163 183 177 189 190 191 188 181 174 163 154 179 167 165 175 196 228 95 150 320 234 177 152 145 139 138 146 154 155 164 171 169 164 157 161 159 154 156 151 153 158 155 151 157 175 171 169 157 164 163 160 160 161 161 164 162 159 159 160 159 158 160 168 170 172 203 235 277 278 295
180 182 182 187 187 184 180 183 178 183 180 165 175 176 178 175 176 181 190 191 184 175 167 162 131 142 189 176 158 203 161 115 190 119 114 10 155 143 143 149 147 138 152 161 159 157 160 149 163 167 168 143 146 150 154 163 157 154 162 170 163 162 164 168 166 165 163 164 166 168 167 168 171 176 177 189 189 185 209 211 225 241 249 257 261
180 183 185 185 185 183 183 187 180 185 177 177 181 181 174 177 173 191 185 192 170 164 178 186 159 220 219 210 80 197 183 115 135 155 158 141 189 335 145 164 166 164 160 160 158 157 160 161 164 169 162 153 156 158 163 164 160 161 170 167 169 170 171 173 173 173 172 169 173 173 172 176 180 184 193 206 212 208 213 228 231 237 245 258 267
185 184 187 186 187 184 184 187 183 182 180 183 188 180 181 177 176 189 189 190 176 170 156 192 159 188 162 112 96 323 338 81 109 98 127 125 196 160 183 215 188 172 169 159 160 158 166 169 179 167 158 165 164 164 166 165 168 169 172 173 178 178 177 182 183 184 185 184 184 187 187 189 194 200 206 216 224 228 226 229 239 245 251 258 266
190 187 186 188 186 185 185 187 188 184 178 187 190 194 183 179 179 184 186 172 179 150 170 180 177 188 164 157 153 295 48 32 23 64 70 118 169 203 167 168 194 236 194 170 159 168 165 169 171 162 156 160 164 165 167 167 167 169 176 176 181 184 184 190 194 196 197 199 196 198 202 204 208 216 222 228 232 233 237 244 248 253 258 264 273
189 192 187 188 186 184 187 189 189 182 180 183 189 193 184 175 175 167 172 172 182 172 160 163 169 163 160 150 174 166 173 161 210 223 137 138 105 280 146 181 186 178 207 172 161 168 170 174 165 170 173 165 167 165 169 173 166 172 175 178 181 188 188 193 196 203 208 212 212 214 214 217 223 228 233 238 239 246 250 253 259 264 268 272 274
188 192 190 189 186 186 185 185 190 188 185 184 185 188 181 175 168 165 168 170 174 188 157 171 170 167 159 157 179 190 163 148 189 165 157 184 146 197 176 264 330 238 169 147 165 169 185 182 178 177 187 177 170 172 171 167 179 175 174 183 184 188 192 194 199 206 210 213 215 221 227 230 233 235 237 240 244 248 253 256 261 267 270 271 276
192 191 195 188 185 183 184 186 190 194 191 183 184 185 182 174 172 170 169 172 179 186 176 190 175 172 178 176 175 203 207 198 173 167 185 149 152 158 239 157 180 210 153 150 180 216 197 193 172 192 186 185 169 174 173 174 182 181 174 188 186 191 194 194 198 203 210 213 215 220 224 229 235 242 247 254 256 258 260 263 267 270 270 271 273
188 192 193 187 185 188 186 186 187 189 188 188 182 184 181 180 173 172 175 177 173 181 188 182 188 195 160 172 193 201 227 200 204 161 161 143 150 163 197 357 113 187 172 164 173 155 268 242 194 194 187 186 180 171 178 184 186 188 179 181 193 194 197 199 198 201 206 211 214 219 222 226 229 232 236 240 245 250 253 258 262 265 268 271 273
189 190 187 188 185 185 186 185 185 188 187 185 188 187 184 176 175 177 173 174 171 179 187 175 187 205 175 174 194 199 215 220 211 209 183 192 167 169 140 158 10 187 188 226 168 190 194 219 204 194 191 188 187 178 183 187 192 192 188 185 193 198 199 202 203 204 207 211 215 219 222 224 226 232 233 234 237 244 247 248 250 254 260 266 271
185 181 188 186 183 185 186 189 185 183 187 185 184 187 189 174 175 175 178 178 168 180 188 184 190 200 195 179 176 206 211 215 208 210 191 181 183 157 148 146 139 198 229 227 254 248 209 184 216 197 185 190 194 190 185 181 189 196 189 186 194 200 202 204 207 208 210 214 217 220 222 223 225 229 231 232 235 238 240 239 238 242 246 252 260
179 183 185 186 185 182 186 189 188 185 184 186 183 186 187 180 173 179 180 182 172 182 183 187 194 191 202 189 190 208 223 195 215 229 216 179 176 182 171 169 161 144 185 212 240 215 257 203 174 230 197 188 193 196 187 191 193 189 190 190 193 196 203 207 210 212 214 216 219 221 222 224 225 226 230 231 233 236 237 231 228 232 238 242 248
186 183 181 186 187 185 185 189 190 188 187 187 185 183 181 186 179 182 184 177 178 180 186 186 193 186 197 204 196 213 222 217 214 212 227 198 175 178 182 179 161 168 174 182 239 217 239 248 199 208 211 205 193 193 192 193 198 189 192 194 195 200 204 206 211 214 217 219 220 221 222 223 223 224 227 230 230 231 232 229 223 222 229 235 241
186 187 186 186 186 191 187 188 188 191 188 187 186 183 180 186 186 183 188 177 181 184 190 185 193 185 190 202 205 218 223 222 221 201 216 185 177 155 161 166 175 168 171 154 199 275 196 231 238 216 187 201 194 192 193 199 195 187 190 197 202 203 202 208 211 215 218 220 221 221 222 221 220 221 225 227 226 227 229 225 219 217 225 234 240
188 186 190 191 188 189 190 189 189 190 191 189 186 186 184 189 187 190 191 185 181 189 191 191 190 193 187 196 204 213 222 216 230 225 209 190 180 168 159 163 172 169 163 172 191 241 237 203 224 211 193 187 183 183 196 198 201 190 188 196 204 206 203 208 214 216 217 219 221 221 220 219 217 219 223 224 223 223 215 220 216 214 221 230 236
187 186 190 193 192 190 189 190 190 191 191 191 188 186 188 192 192 192 191 193 188 190 190 195 194 190 195 194 201 208 206 213 218 229 214 204 184 182 177 168 181 181 169 179 201 237 279 226 196 211 197 169 189 192 188 197 194 199 197 198 198 202 208 210 213 217 219 219 219 219 219 218 217 218 221 223 222 222 219 212 210 209 213 218 222
191 192 190 192 192 191 189 191 191 191 191 192 190 187 191 192 195 192 193 192 197 191 189 197 198 191 192 199 204 202 203 208 212 216 210 204 195 189 191 184 192 197 191 176 208 206 238 280 283 275 181 185 189 201 192 199 212 193 201 206 206 201 203 206 210 211 211 216 217 217 218 220 219 219 221 221 221 222 224 219 209 205 210 214 214
192 196 196 192 191 191 193 191 191 191 191 192 191 190 194 194 194 196 194 192 195 195 192 198 198 193 190 199 206 201 196 204 209 212 206 204 201 199 201 194 198 203 198 194 182 212 222 242 215 212 208 198 198 205 212 206 204 193 199 206 205 206 202 197 205 215 202 208 212 214 218 222 223 221 221 222 222 224 227 223 213 209 211 213 214
193 197 196 196 189 191 195 194 193 192 191 193 194 194 195 195 195 196 196 195 196 197 197 196 195 195 198 197 205 202 197 200 205 207 208 204 198 205 205 207 203 206 203 201 203 198 209 225 244 211 208 190 223 218 203 195 191 197 201 204 206 209 208 201 203 213 206 203 208 214 219 224 226 224 222 222 223 225 228 226 219 213 212 217 216
197 195 196 195 194 191 195 197 197 197 195 194 195 197 198 197 196 196 198 198 198 199 199 198 194 195 199 202 204 200 199 202 205 205 205 208 208 197 206 208 207 207 205 202 210 200 199 215 234 233 217 212 205 205 196 193 209 204 201 197 199 210 214 212 206 215 216 206 209 214 220 224 225 223 222 222 223 225 228 228 224 219 217 220 220
197 196 195 195 196 198 198 198 198 200 198 197 198 199 198 196 197 199 200 201 201 200 202 202 200 197 199 204 203 200 201 203 207 207 205 207 207 209 208 208 208 202 207 210 202 207 212 220 209 237 236 222 226 216 201 194 192 204 212 218 215 210 208 226 227 215 212 206 203 220 226 227 225 222 221 222 221 223 229 230 225 223 223 223 224
197 197 197 197 198 199 201 199 200 200 200 201 201 200 199 197 197 199 201 203 204 202 202 203 204 204 204 204 204 201 203 206 207 206 206 208 207 212 210 209 204 201 206 209 205 207 212 219 223 216 221 228 207 224 221 199 198 193 197 202 218 219 209 206 227 234 215 210 204 202 207 208 210 210 219 221 218 221 228 232 228 225 224 224 224
200 200 198 198 198 199 202 203 203 201 201 203 202 201 200 199 198 201 202 202 203 205 204 205 205 207 207 207 206 204 205 205 207 208 204 207 208 214 212 207 202 202 207 207 206 207 210 216 218 219 216 216 238 230 195 176 207 235 210 192 206 207 212 213 214 216 226 212 215 202 203 204 220 222 227 230 230 229 231 235 234 227 221 222 224
200 202 201 197 197 200 203 204 205 204 204 205 203 200 200 202 201 202 202 203 203 206 207 207 208 209 210 211 211 210 208 207 206 206 207 205 204 211 212 206 206 205 208 205 208 207 212 213 223 216 214 219 219 203 206 198 204 213 197 187 208 208 203 206 232 223 202 189 207 195 201 188 192 200 199 212 223 221 230 226 234 225 219 220 223
199 200 201 198 200 200 201 204 205 207 209 207 204 199 198 200 202 203 202 205 205 206 208 210 211 211 212 212 213 211 209 208 207 209 210 209 209 209 207 203 207 208 209 207 208 209 209 212 218 208 214 222 215 211 214 215 208 188 177 193 205 205 195 220 231 223 203 188 184 207 217 193 190 203 196 212 224 207 219 201 215 214 216 216 222
197 197 198 202 204 200 201 202 205 208 210 209 201 198 199 200 201 204 203 205 206 208 209 210 213 213 214 213 216 212 211 211 210 209 211 212 213 215 214 210 208 205 205 207 212 208 209 215 215 210 217 222 220 211 217 211 198 194 204 195 204 179 197 200 224 258 207 184 196 202 225 205 182 198 207 214 215 209 205 211 212 213 218 216 219
197 193 198 204 205 200 201 205 207 208 210 208 198 197 198 200 201 205 207 207 207 210 211 212 215 216 216 215 216 216 212 212 211 212 214 215 215 216 217 216 216 216 212 204 207 210 210 214 215 216 215 221 218 209 214 204 207 205 207 196 198 196 205 213 222 222 216 180 189 200 227 213 189 198 205 216 212 208 206 204 206 208 214 219 220
191 195 201 202 205 203 201 204 208 208 212 204 197 196 197 199 202 205 210 210 209 211 212 214 216 214 214 216 217 217 219 211 211 211 211 218 219 218 218 220 221 217 219 220 217 213 205 212 217 218 215 216 215 217 205 202 192 206 200 205 203 203 205 210 221 223 214 180 174 200 217 210 181 194 206 216 203 204 208 198 199 206 212 214 213
196 200 201 203 205 206 204 204 208 210 211 203 196 196 197 198 202 203 214 211 213 214 214 216 217 216 213 214 216 218 219 213 210 211 211 212 213 219 223 224 224 225 222 220 221 222 214 214 216 222 220 207 218 214 203 188 189 203 197 207 201 205 205 212 213 211 195 171 180 179 210 213 194 185 208 219 197 202 199 195 201 206 205 199 196
199 201 201 204 207 207 208 207 207 212 214 202 194 196 196 197 201 201 214 216 217 219 220 219 220 219 217 216 218 221 219 220 212 207 210 210 211 215 218 221 223 223 220 221 222 220 217 220 221 224 221 213 219 212 198 196 199 202 198 202 198 203 207 207 213 197 183 194 176 160 211 208 182 190 214 215 201 202 198 201 200 196 188 183 185
206 206 208 207 207 209 211 211 211 214 216 200 195 195 196 198 197 201 212 218 220 221 223 223 221 221 220 218 219 222 221 221 217 204 208 208 212 217 219 223 225 226 227 224 218 215 215 218 223 224 222 216 213 210 201 198 204 204 205 209 200 196 183 187 206 185 193 196 184 176 194 204 183 190 213 215 192 209 196 188 196 183 179 180 184
205 206 208 208 209 209 210 212 216 219 217 204 194 195 195 195 189 204 210 218 224 227 227 225 225 223 222 220 220 223 222 223 217 205 207 202 213 217 221 223 225 226 233 231 223 219 221 224 227 228 225 217 208 208 201 199 199 197 194 199 208 191 190 200 202 186 202 178 195 188 178 194 187 183 205 215 190 189 180 189 182 190 180 182 187
210 210 209 213 214 212 211 214 215 220 222 203 192 195 193 188 189 200 208 215 225 228 232 231 229 229 228 224 224 226 226 226 218 211 205 199 214 218 220 224 225 229 234 228 219 222 223 227 229 230 227 219 209 206 204 201 201 194 195 208 202 184 200 200 198 202 192 188 193 178 168 202 167 175 184 207 146 185 175 174 175 188 195 189 191
215 215 211 214 217 218 218 219 219 222 228 212 183 190 189 187 191 203 203 213 222 227 228 234 232 233 233 227 225 226 228 228 220 215 207 199 216 220 221 223 229 231 232 210 219 224 220 224 234 234 238 230 217 210 210 205 203 201 206 210 188 191 199 201 197 176 197 223 196 173 183 186 164 195 165 145 189 253 183 175 177 178 176 185 198